Regional Weather Roundup
Issued by NWS

Home | Current Version | Previous Version | Text Only | Print | Product List | Glossary On
Versions: 1 2 3 4 5 6 7 8 9 10 11 12 13 14 15 16 17 18 19 20 21 22 23 24 25 26 27 28 29 30 31 32 33 34 35 36 37 38 39 40 41 42 43 44 45 46 47 48 49 50
000
ASUS43 KDMX 140406
RWRIA

WEATHER ROUNDUP FOR IOWA
NATIONAL WEATHER SERVICE DES MOINES IA
1000 PM CST WED DEC 13 2017

NOTE: "FAIR" INDICATES FEW OR NO CLOUDS BELOW 12,000 FEET WITH NO
SIGNIFICANT WEATHER AND/OR OBSTRUCTIONS TO VISIBILITY.

* - THESE STATIONS ARE NOT NWS STATIONS...THUS NOT UNDER NWS
QUALITY CONTROL.  THEY ALSO DO NOT REPORT WEATHER SUCH
AS PRECIPITATION OR FOG.

IAZ001>003-012>014-020>022-031>034-043>046-140500-
   NORTHWEST IOWA

CITY           SKY/WX    TMP DP  RH WIND       PRES   REMARKS
CARROLL *      CLOUDY    34  25  69 N21G28    29.92R WCI  22
CHEROKEE *     MIX PCPN  32  28  85 N13G20    29.95R WCI  22
DENISON *      CLOUDY    34  25  69 N14G21    29.95R WCI  24
LE MARS *      CLOUDY    34  28  80 NW13      29.95R WCI  25
ORANGE CITY *  DRIZZLE   34  30  86 N13G18    29.94R WCI  25
SHELDON *      CLOUDY    28  27  93 N13       29.93R WCI  18
SIOUX CITY     CLOUDY    36  28  73 N14       29.96R WCI  27
SPENCER        CLOUDY    28  22  78 N18       29.93R WCI  15
STORM LAKE *   CLOUDY    30  25  80 N17       29.93R WCI  18
$$

IAZ055>058-069>071-079>083-090>094-140500-
   SOUTHWEST IOWA

CITY           SKY/WX    TMP DP  RH WIND       PRES   REMARKS
ATLANTIC *     CLOUDY    36  25  64 N14       29.93S WCI  27
AUDUBON *      CLOUDY    36  23  60 N14       29.93R WCI  27
CLARINDA *       N/A     39  28  65 N18G25      N/A  WCI  30
COUNCIL BLFS * CLOUDY    37  30  75 N13       29.94R WCI  29
CRESTON *      CLOUDY    34  21  60 N22       29.91F WCI  22
HARLAN  *      CLOUDY    36  25  64 N13       29.97R WCI  27
LAMONI         CLOUDY    35  23  61 N18G24    29.90R WCI  24
RED OAK *      CLOUDY    37  27  65 N14       29.95R WCI  29
SHENANDOAH *   CLOUDY    41  27  56 N8G14     29.96R
$$

IAZ047>049-059>061-072>074-084-140500-
   CENTRAL IOWA

CITY           SKY/WX    TMP DP  RH WIND       PRES   REMARKS
AMES           CLOUDY    30  22  72 N15G28    29.92R WCI  19
ANKENY *       CLOUDY    32  19  59 N21G36    29.92R WCI  20
BOONE *        CLOUDY    30  21  69 N18G28    29.90R WCI  18
CHARITON *     CLOUDY    34  21  60 NW24G33   29.87S WCI  21
DES MOINES     CLOUDY    33  21  61 N23G35    29.91R WCI  21
GRINNELL*      CLOUDY    29  23  79 N18       29.89R WCI  17
KNOXVILLE *    CLOUDY    32  19  59 N21G29    29.87R WCI  20
MARSHALLTOWN   CLOUDY    27  19  72 N14G23    29.89R WCI  16
NEWTON *       CLOUDY    30  21  69 N18G26    29.89R WCI  18
PELLA *        CLOUDY    32  22  68 NW16G24   29.90R WCI  21
PERRY *        CLOUDY    31  23  70 N23G29    29.93R WCI  18
$$

IAZ004>006-015-016-023>025-035-036-140500-
   NORTH CENTRAL IOWA

CITY           SKY/WX    TMP DP  RH WIND       PRES   REMARKS
ALGONA *       CLOUDY    27  19  74 N15       29.90S WCI  15
CLARION *      CLOUDY    27  21  80 N16G23    29.90R WCI  14
ESTHERVILLE    CLOUDY    25  19  78 N15       29.92R WCI  13
FORT DODGE *   CLOUDY    28  21  75 N14       29.93R WCI  17
MASON CITY     CLOUDY    23  16  74 N15       29.91R WCI  10
FOREST CITY *  CLOUDY    27  19  74 N13       29.90R WCI  16
WEBSTER CITY * CLOUDY    28  19  69 N15G23    29.90R WCI  17
IOWA FALLS *   CLOUDY    28  20  73 N16G23    29.89R WCI  15
$$

IAZ007>011-017>019-026>030-037>042-050>054-066-140500-
   NORTHEAST IOWA

CITY           SKY/WX    TMP DP  RH WIND       PRES   REMARKS
CEDAR RAPIDS   CLOUDY    26  18  71 N14       29.86R WCI  14
CHARLES CITY * CLOUDY    25  18  74 N13       29.87R WCI  13
CLINTON *      CLOUDY    26  18  71 N20       29.83R WCI  12
DECORAH *      CLOUDY    19  14  79 N6        29.85R WCI  11
DUBUQUE        CLOUDY    23  15  71 N17G24    29.82R WCI   9
MONTICELLO *   CLOUDY    25  14  63 N14G21    29.85R WCI  13
OELWEIN *      CLEAR     21  16  79 N9        29.86R WCI  11
WATERLOO       CLOUDY    25  16  68 N18       29.88R WCI  11
$$

IAZ064-065-067-068-078-140500-
   EAST CENTRAL IOWA

CITY           SKY/WX    TMP DP  RH WIND       PRES   REMARKS
DAVENPORT      CLOUDY    26  16  65 NW17G25   29.86R WCI  13
IOWA CITY      CLOUDY    29  18  63 N17       29.89R WCI  17
MT. PLEASANT * CLOUDY    31  22  71 NW18G29   29.86R WCI  19
MUSCATINE *    CLOUDY    28  18  64 N16       29.88R WCI  17
QUAD CITIES    CLOUDY    28  17  63 NW13G24   29.84R WCI  17
$$

IAZ062-063-075>077-085>089-095>099-140500-
   SOUTHEAST IOWA

CITY           SKY/WX    TMP DP  RH WIND       PRES   REMARKS
BURLINGTON     CLOUDY    32  24  72 N18G32    29.83R WCI  20
FAIRFIELD *    CLOUDY    32  23  69 N14G21    29.86R WCI  22
FORT MADISON * CLOUDY    34  25  69 N22       29.84R WCI  22
KEOKUK *       CLOUDY    34  25  69 MISG      29.84R
OSKALOOSA *    CLOUDY    31  23  71 N21G29    29.88R WCI  19
OTTUMWA        CLOUDY    32  24  72 N17G23    29.87R WCI  21
WASHINGTON *   CLOUDY    30  21  69 N21       29.87R WCI  17
$$

ABBREVIATIONS USED IN REMARKS
   TC - TEMPERATURES IN CELSIUS
  WCI - WIND CHILL INDEX
   HX - HEAT INDEX
  VSB - VISIBILITY
$$





USA.gov is the U.S. government's official web portal to all federal, state and local government web resources and services.